Location: Newark
(44.7848°N, 16.6187°E)
Time: 21:14:39
(UTC+00:00)

ISS - Visible Passes

Search period start: 15 November 2019 00:00
Search period end: 25 November 2019 00:00
Orbit: 412 x 421 km, 51.6° (Epoch: 16 November)

Date Brightness Start Highest point End Pass type
(mag) Time Alt. Az. Time Alt. Az. Time Alt. Az.
20 Nov -1.2 17:28:30 10° SSW 17:29:06 13° S 17:29:06 13° S visible
21 Nov -1.7 16:41:06 10° SSE 16:42:59 14° SE 16:43:01 14° SE visible
21 Nov -0.3 18:15:56 10° WSW 18:15:56 10° WSW 18:15:56 10° WSW visible
22 Nov -2.5 17:27:35 10° SW 17:29:45 35° SSW 17:29:45 35° SSW visible
23 Nov -2.9 16:39:25 10° SSW 16:42:30 35° SE 16:43:28 28° ESE visible
23 Nov -0.4 18:15:59 10° W 18:16:23 13° W 18:16:23 13° W visible
24 Nov -2.1 15:51:33 10° S 15:54:10 22° SE 15:56:50 10° E visible
24 Nov -2.9 17:27:21 10° WSW 17:30:01 48° WNW 17:30:01 48° WNW visible
